Flag for USA

Past Weather in 29°58'29.9"N, 81°27'35.3"W, USA — Yesterday and Last 2 Weeks

Now
77 °F

Warm.


Feels Like: 79 °F
Forecast: 81 / 75 °F
Wind: 17 mph from Southeast

Location: St. Augustine Airport

Current Time: May 26, 2020 at 3:38:32 am

Latest Report: May 26, 2020 at 2:56 am


Visibility: 10 mi

Pressure: 29.92 "Hg

Humidity: 82%

Dew Point: 71 °F

Location of 29°58'29.9"N, 81°27'35.3"WLocation

Past Weather in 29°58'29.9"N, 81°27'35.3"W — Graph

°F

29°58'29.9"N, 81°27'35.3"W Temperature Yesterday

Maximum temperature yesterday: 79 °F (at 8:56 am)
Minimum temperature yesterday: 74 °F (at 7:56 pm)
Average temperature yesterday: 77 °F

High & Low Weather Summary for the Past Weeks

 TemperatureHumidityPressure
High92 °F (May 19, 4:56 pm)100% (May 11, 6:35 am)30.28 "Hg (May 11, 6:35 am)
Low59 °F (May 13, 6:19 am)36% (May 19, 4:56 pm)29.77 "Hg (May 19, 4:56 pm)
Average76 °F76%30.04 "Hg
* Reported May 11 1:04 am — May 26 1:56 am, 29°58'29.9"N, 81°27'35.3"W. Weather by CustomWeather, © 2020

Note: Actual official high and low records may vary slightly from our data, if they occured in-between our weather recording intervals... More about our weather records

29°58'29.9"N, 81°27'35.3"W Weather History for the Previous 24 Hours

Scroll right to see more
 ConditionsComfort  
Time TempWeatherWind HumidityBarometerVisibility
1:56 am
Tue, May 26
77 °FWarm.15 mph79%29.94 "Hg10 mi
12:56 am77 °FWarm.16 mph82%29.95 "Hg10 mi
11:56 pm
Mon, May 25
76 °FMild.16 mph85%29.97 "Hg10 mi
10:56 pm77 °FWarm.14 mph85%29.98 "Hg10 mi
9:56 pm76 °FMild.15 mph88%29.96 "Hg10 mi
8:56 pm75 °FMild.16 mph90%29.96 "Hg10 mi
7:56 pm74 °FLight rain. Fog.14 mph91%29.96 "Hg4 mi
6:56 pm76 °FLight rain. Fog.14 mph88%29.95 "Hg4 mi
6:03 pm75 °FLight rain. Fog.15 mph94%29.97 "Hg4 mi
5:35 pm75 °FLight rain. Fog.15 mph94%29.98 "Hg3 mi
4:56 pm76 °FLight rain. Fog.15 mph94%29.98 "Hg4 mi
4:13 pm75 °FLight rain. Fog.17 mph94%29.99 "Hg4 mi
4:03 pm75 °FLight rain. Cloudy.16 mph94%29.99 "Hg9 mi
2:56 pm77 °FLight rain. Fog.16 mph88%30.00 "Hg5 mi
1:56 pm78 °FFog.16 mph87%30.01 "Hg5 mi
12:56 pm76 °FLight rain. Fog.15 mph91%30.03 "Hg5 mi
12:04 pm75 °FLight rain. Overcast.12 mph89%30.04 "Hg5 mi
11:56 am76 °FLight rain. Cloudy.13 mph88%30.03 "Hg10 mi
11:03 am77 °FLight rain. Cloudy.12 mph89%30.03 "Hg8 mi
9:56 am79 °FLight rain. Sunny.12 mph82%30.01 "Hg10 mi
8:56 am79 °FSunny.13 mph82%30.00 "Hg10 mi
7:56 am78 °FSunny.12 mph84%29.99 "Hg10 mi
6:56 am78 °FSunny.9 mph82%29.97 "Hg10 mi
5:56 am77 °FWarm.10 mph85%29.97 "Hg10 mi
4:56 am78 °FWarm.9 mph82%29.97 "Hg10 mi
3:56 am78 °FWarm.9 mph84%29.98 "Hg10 mi
Weather by CustomWeather, © 2020

See weather overview

Advertising